Location: Bacharowice
(49.9333°N, 19.5833°E)
Time: 02:34:59
(UTC+00:00)

Cosmos 1900 - Pass Details

Date: 11 May 2021
Orbit: 689 x 733 km, 66.1° (Epoch: 22 June)

Event Time Altitude Azimuth Distance (km) Brightness Sun altitude
Exits shadow 21:30:21 39° 198° (SSW) 1,086 4.9 -20.3°
Maximum altitude 21:32:13 72° 124° (SE) 764 4.3 -20.4°
Drops below altitude 10° 21:37:14 10° 41° (NE) 2,211 7.3 -20.6°
Sets 21:39:36 0° 39° (NE) 3,128 8.2 -20.7°
